TimeEST,TemperatureF,Dew PointF,Humidity,Sea Level PressureIn,VisibilityMPH,Wind Direction,Wind SpeedMPH,Gust SpeedMPH,PrecipitationIn,Events,Conditions,WindDirDegrees,DateUTC
12:15 AM,48.2,35.6,62,30.41,10.0,NNE,17.3,29.9,N/A,,Mostly Cloudy,20,2012-11-18 05:15:00
12:55 AM,46.4,35.6,66,30.40,10.0,NNE,19.6,32.2,N/A,,Mostly Cloudy,20,2012-11-18 05:55:00
1:15 AM,46.4,35.6,66,30.40,10.0,NNE,19.6,34.5,N/A,,Mostly Cloudy,30,2012-11-18 06:15:00
1:55 AM,46.4,37.4,71,30.39,10.0,NNE,21.9,27.6,N/A,,Mostly Cloudy,20,2012-11-18 06:55:00
2:15 AM,46.4,37.4,71,30.38,10.0,NNE,20.7,29.9,N/A,,Scattered Clouds,20,2012-11-18 07:15:00
2:35 AM,46.4,37.4,71,30.39,10.0,NNE,20.7,32.2,N/A,,Partly Cloudy,20,2012-11-18 07:35:00
2:55 AM,44.6,37.4,76,30.38,10.0,NNE,19.6,35.7,N/A,,Clear,20,2012-11-18 07:55:00
3:15 AM,44.6,37.4,76,30.38,10.0,North,21.9,31.1,N/A,,Partly Cloudy,10,2012-11-18 08:15:00
3:35 AM,44.6,37.4,76,30.38,10.0,North,15.0,26.5,N/A,,Mostly Cloudy,360,2012-11-18 08:35:00
3:55 AM,44.6,37.4,76,30.38,10.0,North,17.3,25.3,N/A,,Mostly Cloudy,360,2012-11-18 08:55:00
4:15 AM,44.6,39.2,81,30.39,10.0,North,16.1,28.8,N/A,,Mostly Cloudy,360,2012-11-18 09:15:00
4:55 AM,44.6,39.2,81,30.39,10.0,North,17.3,23.0,N/A,,Mostly Cloudy,10,2012-11-18 09:55:00
5:15 AM,44.6,39.2,81,30.39,10.0,North,13.8,20.7,N/A,,Mostly Cloudy,10,2012-11-18 10:15:00
5:35 AM,44.6,39.2,81,30.39,10.0,North,18.4,26.5,N/A,,Scattered Clouds,360,2012-11-18 10:35:00
5:55 AM,44.6,39.2,81,30.39,10.0,North,18.4,25.3,N/A,,Scattered Clouds,360,2012-11-18 10:55:00
6:15 AM,44.6,39.2,81,30.39,10.0,North,18.4,27.6,N/A,,Overcast,360,2012-11-18 11:15:00
6:35 AM,44.6,39.2,81,30.39,10.0,North,17.3,33.4,N/A,,Overcast,360,2012-11-18 11:35:00
7:15 AM,44.6,41.0,87,30.39,10.0,North,18.4,31.1,N/A,,Overcast,10,2012-11-18 12:15:00
7:55 AM,46.4,42.8,87,30.40,10.0,NNE,21.9,29.9,N/A,,Overcast,20,2012-11-18 12:55:00
8:15 AM,46.4,42.8,87,30.41,10.0,North,16.1,32.2,N/A,,Overcast,10,2012-11-18 13:15:00
8:35 AM,46.4,42.8,87,30.40,10.0,North,19.6,36.8,N/A,,Overcast,10,2012-11-18 13:35:00
8:55 AM,48.2,42.8,82,30.40,10.0,North,28.8,38.0,N/A,,Overcast,10,2012-11-18 13:55:00
9:15 AM,48.2,42.8,82,30.40,10.0,NNE,20.7,38.0,N/A,,Overcast,20,2012-11-18 14:15:00
9:35 AM,48.2,44.6,87,30.40,10.0,North,25.3,38.0,N/A,,Overcast,10,2012-11-18 14:35:00
9:55 AM,48.2,44.6,87,30.40,10.0,NNE,31.1,41.4,N/A,,Overcast,20,2012-11-18 14:55:00
10:15 AM,48.2,44.6,87,30.40,10.0,NNE,26.5,44.9,N/A,,Overcast,20,2012-11-18 15:15:00
10:35 AM,48.2,44.6,87,30.40,10.0,North,24.2,39.1,N/A,,Overcast,10,2012-11-18 15:35:00
10:55 AM,50.0,44.6,82,30.38,10.0,NNE,27.6,38.0,N/A,,Overcast,20,2012-11-18 15:55:00
11:15 AM,50.0,44.6,82,30.38,10.0,NNE,27.6,42.6,N/A,,Overcast,20,2012-11-18 16:15:00
11:35 AM,51.8,44.6,76,30.37,10.0,NNE,25.3,42.6,N/A,,Overcast,30,2012-11-18 16:35:00
11:55 AM,51.8,44.6,76,30.36,10.0,NNE,25.3,46.0,N/A,,Overcast,20,2012-11-18 16:55:00
12:15 PM,51.8,44.6,76,30.35,10.0,NNE,28.8,39.1,N/A,,Overcast,20,2012-11-18 17:15:00
12:35 PM,51.8,44.6,76,30.35,10.0,NNE,17.3,43.7,N/A,,Overcast,20,2012-11-18 17:35:00
12:55 PM,53.6,44.6,72,30.34,10.0,NNE,25.3,33.4,N/A,,Overcast,20,2012-11-18 17:55:00
1:15 PM,53.6,46.4,77,30.33,9.0,NNE,24.2,35.7,N/A,,Mostly Cloudy,20,2012-11-18 18:15:00
1:35 PM,53.6,44.6,72,30.32,10.0,NNE,24.2,31.1,N/A,,Overcast,20,2012-11-18 18:35:00
1:55 PM,53.6,46.4,77,30.32,10.0,NNE,18.4,31.1,N/A,,Overcast,20,2012-11-18 18:55:00
2:15 PM,53.6,46.4,77,30.31,10.0,North,23.0,35.7,N/A,,Overcast,10,2012-11-18 19:15:00
2:35 PM,53.6,46.4,77,30.31,10.0,North,21.9,34.5,N/A,,Overcast,10,2012-11-18 19:35:00
2:55 PM,53.6,46.4,77,30.30,10.0,North,20.7,33.4,N/A,,Overcast,10,2012-11-18 19:55:00
3:15 PM,55.4,46.4,72,30.29,10.0,North,25.3,33.4,N/A,,Overcast,10,2012-11-18 20:15:00
3:35 PM,55.4,46.4,72,30.29,10.0,North,26.5,34.5,N/A,,Overcast,10,2012-11-18 20:35:00
3:55 PM,55.4,46.4,72,30.29,10.0,NNE,29.9,39.1,N/A,,Mostly Cloudy,20,2012-11-18 20:55:00
4:15 PM,55.4,44.6,67,30.29,10.0,NNE,21.9,32.2,N/A,,Mostly Cloudy,20,2012-11-18 21:15:00
4:35 PM,55.4,44.6,67,30.29,10.0,NNE,23.0,39.1,N/A,Rain,Light Rain,20,2012-11-18 21:35:00
4:55 PM,53.6,46.4,77,30.29,10.0,NNE,23.0,39.1,N/A,,Overcast,20,2012-11-18 21:55:00
5:15 PM,55.4,44.6,67,30.29,10.0,NNE,25.3,41.4,N/A,,Scattered Clouds,20,2012-11-18 22:15:00
5:55 PM,53.6,44.6,72,30.30,10.0,NNE,31.1,39.1,N/A,,Mostly Cloudy,20,2012-11-18 22:55:00
6:15 PM,53.6,44.6,72,30.30,10.0,NNE,36.8,48.3,N/A,,Overcast,20,2012-11-18 23:15:00
6:35 PM,53.6,44.6,72,30.31,10.0,North,36.8,51.8,N/A,,Overcast,10,2012-11-18 23:35:00
6:55 PM,53.6,46.4,77,30.31,9.0,NNE,32.2,51.8,N/A,,Overcast,20,2012-11-18 23:55:00
7:15 PM,53.6,46.4,77,30.31,10.0,North,31.1,44.9,N/A,,Overcast,10,2012-11-19 00:15:00
7:35 PM,53.6,46.4,77,30.31,10.0,North,24.2,38.0,N/A,,Overcast,10,2012-11-19 00:35:00
7:55 PM,51.8,46.4,82,30.31,10.0,North,25.3,34.5,N/A,,Mostly Cloudy,10,2012-11-19 00:55:00
8:15 PM,51.8,46.4,82,30.31,10.0,North,24.2,36.8,N/A,,Scattered Clouds,10,2012-11-19 01:15:00
8:35 PM,51.8,46.4,82,30.31,10.0,North,24.2,39.1,N/A,,Mostly Cloudy,10,2012-11-19 01:35:00
8:55 PM,51.8,46.4,82,30.31,10.0,NNE,27.6,38.0,N/A,,Overcast,20,2012-11-19 01:55:00
9:15 PM,51.8,46.4,82,30.31,10.0,NNE,24.2,46.0,N/A,,Overcast,20,2012-11-19 02:15:00
9:35 PM,51.8,46.4,82,30.31,10.0,North,25.3,43.7,N/A,,Overcast,10,2012-11-19 02:35:00
9:55 PM,51.8,46.4,82,30.30,10.0,North,18.4,32.2,N/A,,Overcast,10,2012-11-19 02:55:00
10:15 PM,51.8,46.4,82,30.30,10.0,North,17.3,29.9,N/A,,Overcast,360,2012-11-19 03:15:00
10:55 PM,51.8,46.4,82,30.30,10.0,North,16.1,28.8,N/A,,Overcast,10,2012-11-19 03:55:00
11:15 PM,51.8,46.4,82,30.30,10.0,North,24.2,38.0,N/A,,Overcast,10,2012-11-19 04:15:00
11:35 PM,51.8,44.6,76,30.30,10.0,North,18.4,28.8,N/A,,Overcast,10,2012-11-19 04:35:00
11:55 PM,51.8,44.6,76,30.29,10.0,North,27.6,38.0,N/A,,Overcast,10,2012-11-19 04:55:00